Wind_Speed
18 18 19 13 12 13 12 10 8 8 8 9 10 10 11 17 23 23 22 18 15 16 18 18 17 15 14 14 16 19 21 25 26 27 28 29 30 31 33 35 38 42 44 47
18 20 12 8 9 11 11 10 8 5 4 6 7 11 15 19 27 20 23 22 14 17 19 22 23 23 20 19 23 26 29 31 32 32 33 34 35 34 35 38 44 47 48 50
19 4 12 9 5 6 10 9 8 8 6 7 11 15 15 18 13 19 28 26 21 19 22 27 30 30 28 25 29 33 35 37 37 37 37 37 37 37 36 44 47 48 50 53
13 15 13 6 3 2 9 9 8 8 8 5 6 5 10 12 10 11 18 23 27 27 29 34 37 38 37 34 36 40 41 41 40 40 37 38 41 37 42 47 47 48 54 58
10 12 14 9 2 2 2 5 10 8 9 10 7 4 3 3 1 4 9 14 16 16 29 40 44 47 47 43 43 46 45 45 42 39 29 46 40 42 47 48 47 54 58 57
18 11 12 11 8 4 7 3 10 9 8 2 6 5 7 11 12 6 7 10 10 12 14 16 21 44 49 51 49 49 46 44 38 28 45 45 44 47 47 49 54 56 56 58
18 20 18 15 13 7 5 8 3 1 1 6 4 5 6 7 6 7 10 10 10 12 14 20 23 18 31 48 52 49 39 33 35 45 48 42 45 45 50 55 55 56 59 59
17 9 19 19 13 9 7 6 8 5 4 4 7 4 4 6 6 7 6 8 18 22 21 17 18 18 16 21 39 38 35 34 33 38 37 41 42 48 50 52 55 58 58 54
9 8 9 9 12 11 11 10 10 13 5 2 4 4 3 6 8 10 11 15 13 12 13 17 20 14 14 15 16 12 15 21 24 31 34 37 44 47 50 53 55 55 51 44
16 6 5 8 13 12 11 12 8 8 5 4 4 5 8 9 11 13 14 12 12 16 20 19 17 11 9 9 13 17 27 27 35 33 35 40 43 48 50 52 49 46 42 35
25 22 13 5 5 6 4 12 11 8 4 7 3 5 8 10 9 7 8 9 16 18 16 17 13 17 18 20 20 22 30 29 29 32 38 42 45 48 48 45 43 39 34 30
26 14 28 27 23 19 13 7 10 8 6 6 5 5 7 6 7 10 12 13 15 15 13 19 22 23 22 21 25 28 29 27 31 36 39 42 44 44 40 39 38 34 30 27
24 25 19 6 3 7 10 8 4 2 4 8 5 3 3 4 8 9 10 11 16 15 17 17 21 26 27 24 29 28 28 24 28 35 39 40 40 36 36 36 33 30 26 25
17 19 25 27 16 9 14 16 13 13 6 5 7 6 9 7 8 9 8 11 12 15 16 17 23 29 27 27 24 27 21 26 32 36 36 37 34 32 33 32 29 27 26 24
13 14 20 19 15 12 11 8 6 6 7 5 6 9 12 14 13 10 11 11 13 17 17 17 21 28 29 28 28 21 24 27 33 35 33 30 30 30 30 28 26 27 26 24
12 14 15 18 15 9 4 3 9 13 16 16 15 17 16 16 16 15 14 14 16 17 16 18 20 25 32 30 22 27 24 28 33 33 28 27 28 27 28 25 26 26 25 25
15 15 15 9 9 12 16 17 19 17 19 21 18 18 15 17 18 16 15 15 18 14 16 17 18 25 30 23 17 17 21 27 30 29 25 26 26 26 24 24 25 25 24 24
16 14 11 7 7 1 10 15 14 10 7 13 14 11 13 14 12 10 13 14 13 13 16 17 18 22 22 20 22 19 22 25 26 25 23 24 23 23 22 22 24 25 25 24
12 14 11 8 12 5 6 14 10 11 16 17 12 8 8 9 10 9 11 13 13 13 17 18 19 22 21 22 21 20 20 22 22 21 21 20 21 22 20 23 23 24 24 23
13 12 14 11 5 7 10 15 14 14 19 14 11 11 10 7 11 11 14 16 15 17 15 14 23 19 23 20 17 18 18 19 19 19 18 19 20 20 20 23 25 24 24 24
19 18 17 16 14 10 14 11 11 11 10 6 5 7 10 14 13 13 16 18 17 10 11 12 19 21 24 13 15 15 16 16 17 17 17 18 18 19 22 23 24 24 24 26
18 19 16 16 10 10 12 15 17 11 9 8 9 10 13 11 14 18 16 15 14 15 13 16 18 19 16 13 15 15 15 15 16 16 17 17 17 18 21 23 24 25 25 26
14 15 11 10 8 7 5 6 9 9 12 13 12 14 16 17 20 17 16 15 13 12 15 15 18 18 10 13 13 13 15 14 15 17 16 16 17 19 20 22 23 25 25 26
22 21 21 19 21 21 18 12 12 13 13 12 15 16 19 19 17 15 15 12 10 12 9 16 15 10 12 10 12 12 14 14 12 15 15 16 18 19 20 21 23 24 26 27
21 20 20 20 19 15 15 15 13 13 13 14 16 14 13 14 14 12 11 10 8 6 4 3 4 7 9 10 10 11 12 13 11 13 15 16 18 20 21 22 23 24 26 28
13 13 13 12 12 16 16 15 15 16 15 14 12 10 9 9 10 8 5 4 5 2 3 5 6 8 8 9 10 11 10 13 12 13 13 14 17 20 21 21 23 25 26 28
Wind_Direction
224 234 242 255 253 250 241 251 272 278 265 284 278 267 277 283 289 259 239 256 294 307 298 280 267 243 243 252 250 259 263 271 279 284 286 288 291 294 300 306 314 314 315 312
226 241 239 227 232 230 231 252 267 313 308 307 307 292 284 294 291 272 247 266 289 301 298 284 276 258 260 266 259 257 260 268 273 277 278 282 287 294 301 308 312 311 311 313
228 242 209 198 199 232 240 261 251 281 330 330 316 306 306 307 294 229 239 254 274 296 291 283 281 272 258 259 256 250 254 260 266 269 273 280 288 293 306 306 308 311 313 311
239 211 181 213 189 332 282 252 249 259 284 329 333 302 311 319 294 260 257 261 265 266 269 271 270 263 256 252 250 247 251 257 261 264 272 286 289 297 303 303 305 308 311 313
210 199 215 202 186 272 329 223 227 244 278 292 282 288 304 321 106 183 239 254 269 276 260 259 259 254 252 247 248 248 251 256 258 261 283 288 291 299 301 305 306 309 312 312
224 220 213 205 219 253 316 271 218 223 251 271 250 242 225 252 263 300 312 301 293 305 313 298 298 257 250 247 247 249 250 254 257 278 289 286 295 298 304 307 311 311 311 314
235 240 239 244 244 247 282 217 213 258 19 218 227 239 245 244 265 300 308 309 315 323 334 335 326 309 264 250 248 250 253 267 280 283 286 283 292 303 308 312 312 313 317 319
222 245 238 232 233 245 236 243 224 189 180 234 210 224 213 224 246 269 277 313 325 327 324 317 319 311 306 269 254 258 279 280 288 290 285 287 301 309 312 313 316 319 320 320
207 233 222 213 216 228 244 259 261 239 179 188 224 217 248 262 258 259 283 302 313 323 322 325 323 331 311 265 272 281 282 290 290 290 297 304 311 314 317 320 321 322 320 321
224 239 248 227 217 245 247 249 232 222 132 191 238 233 220 236 261 269 291 304 328 335 327 321 319 325 309 263 282 298 296 293 294 302 308 314 317 319 322 323 324 320 322 327
232 237 241 229 224 214 219 214 222 211 188 151 171 240 267 247 284 313 317 318 333 342 321 317 301 308 305 282 271 288 301 292 291 308 318 319 323 325 325 325 323 326 328 330
224 237 246 258 261 261 272 253 225 222 208 169 187 228 262 266 284 322 336 336 349 351 319 297 295 305 294 283 296 301 299 288 305 317 319 323 326 324 326 325 328 329 328 333
229 222 231 240 226 237 228 231 212 243 167 183 149 244 244 249 282 309 320 334 341 338 337 319 293 294 289 285 304 298 298 307 313 315 322 325 324 327 328 330 331 328 334 335
214 211 221 232 239 240 226 233 230 235 213 215 225 277 305 283 296 303 302 313 324 326 326 307 302 296 278 289 294 304 308 314 316 319 322 326 327 331 332 329 332 338 337 334
175 196 210 223 236 205 185 184 206 229 233 251 276 277 282 282 287 286 278 296 309 316 315 305 297 293 278 286 296 290 301 313 317 319 324 330 331 332 330 335 339 345 339 337
189 162 169 169 178 178 179 299 286 275 275 277 271 271 267 264 268 275 274 286 302 310 315 310 303 294 285 285 283 285 299 317 319 319 329 331 331 331 324 341 342 345 341 342
194 187 180 188 215 269 281 299 279 278 264 268 276 275 253 257 266 270 267 285 301 309 298 295 299 296 288 290 291 295 313 318 319 323 332 331 331 320 338 338 349 344 344 345
219 209 199 183 192 117 246 250 257 255 271 301 300 287 264 257 251 255 273 284 294 291 290 285 301 290 291 294 304 313 314 322 323 327 331 330 322 330 341 347 350 346 347 347
216 219 205 187 197 214 213 223 207 281 295 299 281 250 250 257 267 269 281 290 292 293 295 291 292 269 276 283 297 305 318 324 326 328 325 323 329 340 339 360 350 347 350 348
205 210 218 189 182 202 258 244 253 277 282 288 258 270 284 282 294 302 298 295 295 302 300 300 274 276 288 302 295 304 323 331 327 320 323 333 340 334 351 1 348 348 348 346
202 210 218 224 223 240 248 249 236 241 289 286 288 304 296 297 297 309 301 293 298 290 290 282 275 290 296 294 298 317 328 327 326 328 335 337 333 339 1 357 348 346 348 348
214 216 221 227 228 247 225 227 230 282 293 286 299 305 311 299 296 302 289 286 289 290 287 270 279 280 285 298 309 322 319 321 326 335 338 329 334 354 2 354 347 346 348 349
210 208 217 232 243 228 200 236 265 277 278 281 275 297 300 300 298 288 278 279 285 293 284 276 283 273 288 302 316 316 314 319 330 335 329 332 345 359 360 354 347 346 347 347
250 257 259 258 257 254 251 252 251 265 265 258 274 288 300 299 292 279 273 274 283 299 305 282 253 244 273 291 313 318 325 333 322 328 337 342 352 357 356 352 349 347 345 346
246 251 255 256 253 246 236 234 244 250 247 259 279 287 291 289 285 280 271 273 284 295 291 263 264 279 291 301 307 309 320 327 322 340 344 347 354 357 353 350 349 347 345 344
238 245 243 249 247 237 228 231 239 234 258 261 263 272 281 294 290 286 265 226 223 210 246 257 270 280 291 295 296 308 322 327 339 345 345 352 354 355 348 347 347 345 344 343
Height
3160 3162 3163 3166 3167 3168 3170 3171 3173 3174 3175 3174 3174 3175 3175 3176 3176 3176 3179 3182 3185 3185 3187 3187 3188 3190 3190 3191 3191 3191 3191 3188 3186 3185 3183 3182 3181 3179 3177 3172 3168 3164 3159 3154
3160 3159 3162 3163 3164 3165 3167 3168 3170 3172 3171 3171 3171 3171 3171 3172 3171 3171 3177 3180 3182 3184 3184 3184 3184 3186 3186 3186 3187 3187 3186 3184 3182 3181 3180 3179 3177 3175 3172 3168 3163 3158 3153 3146
3157 3160 3159 3161 3163 3164 3165 3166 3168 3169 3169 3169 3168 3169 3169 3169 3167 3169 3174 3177 3179 3179 3180 3181 3181 3180 3181 3182 3181 3181 3180 3179 3178 3177 3176 3176 3174 3170 3168 3163 3157 3150 3144 3138
3155 3157 3158 3160 3161 3162 3161 3164 3166 3166 3167 3168 3168 3168 3167 3166 3166 3169 3174 3176 3176 3175 3175 3176 3175 3175 3175 3175 3174 3174 3174 3174 3173 3173 3174 3173 3169 3166 3161 3156 3150 3144 3137 3129
3153 3154 3156 3158 3159 3159 3160 3161 3163 3164 3165 3166 3167 3168 3166 3166 3167 3167 3169 3170 3169 3168 3168 3168 3168 3168 3167 3168 3169 3169 3170 3168 3168 3168 3170 3167 3165 3160 3155 3149 3143 3137 3129 3120
3150 3152 3153 3155 3156 3157 3159 3159 3161 3163 3164 3165 3165 3166 3164 3164 3165 3166 3165 3165 3165 3164 3163 3162 3160 3159 3161 3161 3163 3164 3165 3164 3166 3169 3163 3163 3159 3153 3147 3141 3135 3127 3118 3108
3147 3148 3150 3152 3154 3156 3157 3159 3160 3164 3165 3165 3163 3164 3163 3163 3163 3164 3164 3164 3163 3163 3161 3159 3156 3154 3154 3156 3158 3160 3162 3166 3162 3162 3158 3156 3152 3147 3140 3132 3125 3115 3104 3095
3144 3146 3147 3149 3152 3154 3155 3156 3158 3163 3167 3162 3162 3161 3161 3162 3163 3163 3163 3163 3163 3161 3160 3158 3155 3152 3150 3151 3155 3160 3154 3163 3158 3155 3151 3150 3146 3139 3132 3124 3113 3102 3092 3086
3141 3142 3144 3147 3149 3152 3152 3153 3155 3155 3159 3160 3160 3159 3160 3159 3160 3160 3160 3160 3159 3159 3158 3157 3154 3153 3152 3153 3156 3156 3155 3155 3152 3148 3146 3143 3137 3131 3122 3112 3102 3093 3086 3080
3139 3140 3142 3144 3146 3147 3148 3150 3151 3152 3158 3161 3156 3157 3156 3156 3156 3157 3158 3158 3158 3157 3156 3155 3154 3153 3153 3154 3154 3153 3152 3149 3148 3145 3140 3135 3129 3120 3111 3102 3095 3089 3081 3073
3135 3138 3140 3142 3143 3143 3144 3144 3146 3148 3150 3151 3158 3154 3154 3155 3154 3156 3156 3157 3156 3154 3153 3153 3152 3151 3151 3150 3148 3146 3144 3139 3141 3138 3133 3127 3118 3111 3103 3097 3091 3083 3076 3070
3130 3133 3135 3138 3140 3141 3142 3142 3143 3144 3147 3147 3149 3150 3152 3152 3153 3154 3154 3153 3152 3151 3150 3149 3148 3148 3146 3145 3144 3141 3140 3137 3134 3130 3125 3117 3111 3106 3099 3093 3086 3079 3073 3066
3125 3128 3132 3134 3137 3137 3138 3139 3140 3142 3143 3144 3147 3149 3149 3150 3150 3151 3151 3150 3149 3148 3147 3146 3145 3144 3142 3141 3139 3137 3134 3131 3128 3125 3118 3112 3106 3100 3094 3089 3083 3077 3070 3064
3120 3122 3125 3128 3131 3133 3134 3135 3136 3138 3140 3141 3143 3144 3146 3146 3147 3148 3148 3147 3146 3145 3144 3142 3141 3139 3137 3136 3134 3132 3130 3127 3124 3119 3113 3107 3102 3096 3091 3087 3081 3073 3067 3063
3117 3118 3122 3124 3126 3129 3131 3133 3135 3135 3137 3138 3141 3142 3143 3143 3142 3143 3143 3142 3142 3141 3139 3138 3136 3135 3133 3131 3129 3128 3126 3123 3119 3114 3107 3101 3097 3092 3090 3084 3077 3070 3065 3061
3115 3117 3119 3121 3124 3127 3129 3131 3133 3135 3135 3136 3137 3138 3140 3139 3138 3138 3138 3138 3137 3136 3134 3133 3131 3130 3128 3127 3123 3123 3120 3118 3113 3109 3102 3097 3093 3091 3089 3080 3074 3068 3064 3058
3114 3116 3117 3119 3121 3123 3125 3128 3129 3130 3130 3131 3133 3136 3135 3135 3134 3134 3134 3134 3133 3131 3130 3128 3127 3125 3123 3119 3111 3119 3116 3112 3108 3104 3098 3094 3091 3091 3083 3079 3070 3068 3063 3057
3110 3113 3115 3116 3119 3122 3122 3125 3126 3128 3128 3129 3130 3131 3131 3130 3131 3131 3131 3130 3129 3127 3125 3124 3122 3120 3118 3116 3116 3110 3111 3107 3104 3100 3095 3092 3092 3087 3081 3075 3069 3066 3061 3056
3108 3110 3112 3114 3117 3120 3120 3121 3123 3124 3125 3124 3125 3127 3127 3127 3127 3127 3127 3125 3124 3122 3121 3118 3117 3116 3114 3114 3114 3112 3108 3104 3101 3097 3095 3092 3089 3083 3080 3070 3069 3065 3060 3056
3106 3108 3111 3113 3114 3117 3117 3120 3120 3121 3120 3119 3121 3122 3122 3123 3123 3122 3121 3120 3118 3117 3115 3114 3113 3112 3111 3111 3111 3109 3103 3100 3099 3097 3094 3089 3085 3083 3076 3069 3067 3064 3058 3055
3102 3104 3107 3109 3111 3112 3114 3116 3117 3119 3120 3116 3118 3118 3119 3119 3118 3117 3115 3114 3112 3111 3111 3112 3111 3110 3109 3108 3108 3104 3101 3100 3098 3094 3090 3087 3084 3081 3071 3069 3067 3063 3057 3053
3097 3100 3103 3106 3108 3110 3110 3111 3114 3115 3113 3114 3114 3114 3114 3113 3113 3111 3110 3109 3108 3108 3107 3108 3107 3106 3105 3105 3103 3100 3099 3097 3096 3092 3088 3087 3083 3076 3070 3068 3066 3061 3056 3051
3095 3097 3100 3103 3104 3105 3106 3108 3110 3110 3110 3110 3111 3110 3110 3109 3108 3106 3106 3105 3105 3104 3104 3104 3104 3102 3102 3102 3100 3099 3098 3095 3092 3090 3089 3085 3080 3073 3070 3068 3065 3060 3055 3050
3088 3091 3093 3097 3099 3101 3103 3104 3105 3106 3107 3107 3107 3107 3106 3104 3103 3102 3102 3102 3102 3101 3100 3099 3099 3099 3100 3097 3098 3097 3096 3092 3092 3090 3086 3082 3077 3073 3070 3067 3064 3059 3054 3048
3084 3086 3087 3089 3093 3095 3097 3100 3101 3102 3103 3104 3103 3103 3102 3101 3100 3099 3099 3099 3099 3099 3098 3098 3098 3098 3098 3097 3096 3096 3094 3093 3090 3087 3084 3080 3075 3072 3070 3066 3062 3057 3052 3047
3079 3081 3083 3085 3089 3091 3094 3096 3097 3098 3100 3100 3100 3100 3099 3099 3097 3097 3096 3097 3097 3098 3098 3098 3097 3097 3097 3096 3095 3095 3092 3092 3088 3083 3080 3077 3075 3072 3070 3065 3061 3056 3050 3044